Weather in Strelka

Russia / Vologda Oblast     60°34′05″N   45°02′34″E
temp.,
°C
wind,
m/s
gust,
m/s
humid.,
%
clouds,
%
prec.,
mm/h
press.,
hPa
HPBL,
m
25 february, thu
thu2500:00−18s41092100 0.0 1026343
03:00−18s41091100 0.0 1023411
06:00−17sse51295100 0.7 1019527
09:00−17sse51095100 2.0 1017575
12:00−15sse4992100 0.8 1015623
15:00−14sse4892100 1.2 1015645
18:00−15sse3894100 0.4 1014559
21:00−15sse399497 0.5 1014439
26 february, fri
fri2600:00−17sse399687 0.0 1013268
03:00−17sse399585 0.1 1013303
06:00−18sse499598 0.0 1011327
09:00−16sse4109499 0.1 1009356
12:00−13se5992100 0.1 1006423
15:00−12se51192100 0.3 1002479
18:00−13ese51294100 1.6 999551
21:00−13ese41092100 2.8 998620
27 february, sat
sat2700:00−13e4994100 0.4 998596
03:00−14ene4894100 1.0 1000523
06:00−16ene3795100 0.4 1001440
09:00−16ne3692100 0.4 1003439
12:00−14ne3590100 0.0 1004499
15:00−13nne3590100 0.1 1006536
18:00−16ne2297100 0.0 100720
21:00−19ne129865 0.0 100920
28 february, sun
sun2800:00−21nne12990 0.0 101020
03:00−21n22987 0.0 101120
06:00−22n22980 0.0 101220
09:00−19n12960 0.0 1014126
12:00−13nnw238761 0.0 1015398
15:00−11nnw239081 0.1 1016492
18:00−15nnw129798 0.0 101720
21:00−16wnw119892 0.1 101920
1 march, mon
mon100:00−16w129990 0.0 102020
03:00−14wsw229892 0.1 102039
06:00−12sw259899 0.0 1019113
09:00−9sw369499 0.1 1018250
12:00−6wsw3794100 0.5 1017424
15:00−3wsw4894100 0.6 1014502
18:00−2wsw41195100 0.3 1012681
21:000w51197100 1.2 1010764